sat.trackr.live / text

‹ back to catalog

STARLINK-11477 [DTC]

NORAD 62471 · 2024-254K

PAYLOAD ACTIVE UNKNOWN

§ Identity

Operator
Country
US
Launch date
2024-12-31
Launch site
AFETR
Launch vehicle
Mass (kg)
RCS (m²)

Purposes: comms

External: N2YO · Heavens-Above · Gunter

§ Orbital elements

Epoch: 2026-09-21T01:57:10.211616Z

Period
91.66 min
Inclination
43.0018°
Eccentricity
0.0003417
Mean motion
15.70964945 rev/d
Perigee alt
353.8 km
Apogee alt
358.4 km
Semi-major
6,734.3 km
B*
9.8652e-4
RAAN
125.0105°
Arg perigee
252.8950°
Mean anomaly
107.1543°
Rev number
10,012

§ Raw data

STARLINK-11477 [DTC]1 62471U 24254K   26264.08136819  .00128814  00000+0  98652-3 0  99992 62471  43.0018 125.0105 0003417 252.8950 107.1543 15.70964945100123

JSON: /api/v1/satellites/62471 · /tle

For live sub-satellite position, see the globe view (requires WebGL).

§ Visibility from observer

Set your observer location to see the next 7 days of passes ≥ 10°. The values pass through the URL so the page stays shareable.

No JS? Fill the form by hand. The geolocation button needs JavaScript.